ESGP

Gothenburg City

Airport
ICAO code
ESGP
Summary
ICAO Region
EUR
ICAO Territory
Location

Gothenburg,

Elevation
59 ft
Coordinates
57° 46' 29" N , 11° 52' 13" E
KCC
Metar
Observation
ESGP 090220Z AUTO 19017KT 9999 NCD 03/M02 Q1022
Station
Goteborg / Save
Date/Time
2023-02-09 02:20:00
Wind direction
190°
Wind speed
17 kts
Lowest cloud amount
no clouds detected
Temperature
3°C
Dew point
-2°C
Humidity
69%
QNH
1022 hPa
Weather condition
n/a

Description

Gothenburg City Airport or Göteborg City Airport, formerly (and still informally) known as Säve Flygplats, is Gothenburg's second international airport located 5 nm from the centre of Gothenburg on the island of Hisingen, Bohuslän, Sweden. It is located within the borders of Gothenburg Municipality, hence its name.

Climatology

Temperate Marine climate/Oceanic climate (Köppen climate classification Cfb). Moderately cool summer and comparatively warm winter.

Runways

Designator Length Width Surface Rops
4/22 871 30 ASP Yes/Yes
1/19 2039 40 ASP Yes/Yes

Airport map

Aerial View

SKYbrary Partners:

Safety knowledge contributed by: